When you browse on this site, cookies collect data to enhance your experience and personalize the content and advertising you see.
Visit our Privacy Policy to learn more. By continuing to use the site, you agree to this use of cookies and data.
  • Em Portugal
  • Lista de países
  • Para 7 dias
  • Temperatura da água
  • Mapas de satélite
  • Mapa do tempo
  • Widgets de tempo
  • user-avatar
    Iniciar Sessão

    Previsão horária em São Luis

    Hoje, 24 Maio, Sexta-feira

    Tempo Temperatura Precipitação Vento Pressão Humidade
    00:00 +8°C° 0 mm 4 m/s 700 mmHg 29%
    01:00 +8°C° 0 mm 4 m/s 700 mmHg 28%
    02:00 +10°C° 0 mm 4 m/s 699 mmHg 27%
    03:00 +10°C° 0 mm 4 m/s 699 mmHg 26%
    04:00 +8°C° 0 mm 4 m/s 699 mmHg 26%
    05:00 +8°C° 0 mm 4 m/s 698 mmHg 25%
    06:00 +10°C° 0 mm 4 m/s 699 mmHg 24%
    07:00 +10°C° 0 mm 3 m/s 699 mmHg 24%
    08:00 +10°C° 0 mm 3 m/s 699 mmHg 23%
    09:00 +13°C° 0 mm 4 m/s 699 mmHg 20%
    10:00 +17°C° 0 mm 4 m/s 699 mmHg 17%
    11:00 +21°C° 0 mm 4 m/s 700 mmHg 13%
    12:00 +21°C° 0 mm 4 m/s 699 mmHg 13%
    13:00 +22°C° 0 mm 4 m/s 699 mmHg 12%
    14:00 +23°C° 0 mm 4 m/s 698 mmHg 11%
    15:00 +21°C° 0 mm 3 m/s 698 mmHg 15%
    16:00 +20°C° 0 mm 3 m/s 697 mmHg 18%
    17:00 +18°C° 0 mm 2 m/s 697 mmHg 21%
    18:00 +17°C° 0 mm 2 m/s 697 mmHg 21%
    19:00 +16°C° 0 mm 3 m/s 697 mmHg 21%
    20:00 +14°C° 0 mm 3 m/s 697 mmHg 21%
    21:00 +14°C° 0 mm 3 m/s 697 mmHg 20%
    22:00 +14°C° 0 mm 4 m/s 697 mmHg 20%
    23:00 +14°C° 0 mm 4 m/s 697 mmHg 19%

    Amanhã, 25 Maio, Sábado

    Tempo Temperatura Precipitação Vento Pressão Humidade
    00:00 +14°C° 0 mm 5 m/s 696 mmHg 20%
    01:00 +13°C° 0 mm 5 m/s 696 mmHg 21%
    02:00 +13°C° 0 mm 6 m/s 696 mmHg 23%
    03:00 +13°C° 0 mm 6 m/s 696 mmHg 23%
    04:00 +13°C° 0 mm 5 m/s 695 mmHg 23%
    05:00 +13°C° 0 mm 5 m/s 695 mmHg 23%
    06:00 +13°C° 0 mm 5 m/s 695 mmHg 26%
    07:00 +13°C° 0 mm 5 m/s 695 mmHg 29%
    08:00 +13°C° 0 mm 4 m/s 695 mmHg 31%
    09:00 +15°C° 0 mm 5 m/s 695 mmHg 29%
    10:00 +17°C° 0 mm 5 m/s 695 mmHg 27%
    11:00 +20°C° 0 mm 5 m/s 696 mmHg 25%
    12:00 +21°C° 0 mm 5 m/s 695 mmHg 24%
    13:00 +21°C° 0 mm 5 m/s 695 mmHg 23%
    14:00 +22°C° 0 mm 5 m/s 694 mmHg 22%
    15:00 +21°C° 0 mm 5 m/s 694 mmHg 25%
    16:00 +19°C° 0 mm 4 m/s 693 mmHg 29%
    17:00 +18°C° 0 mm 3 m/s 693 mmHg 33%
    18:00 +17°C° 0 mm 3 m/s 693 mmHg 35%
    19:00 +14°C° 0 mm 3 m/s 693 mmHg 38%
    20:00 +14°C° 0 mm 2 m/s 693 mmHg 41%
    21:00 +13°C° 0 mm 2 m/s 693 mmHg 43%
    22:00 +13°C° 0 mm 2 m/s 694 mmHg 44%
    23:00 +12°C° 0 mm 3 m/s 694 mmHg 46%

    Depois de amanhã, 26 Maio, Domingo

    Tempo Temperatura Precipitação Vento Pressão Humidade
    00:00 +12°C° 0 mm 2 m/s 694 mmHg 49%
    01:00 +12°C° 0 mm 2 m/s 694 mmHg 51%
    02:00 +10°C° 0 mm 2 m/s 693 mmHg 54%
    03:00 +10°C° 0 mm 2 m/s 693 mmHg 57%
    04:00 +10°C° 0 mm 2 m/s 693 mmHg 60%
    05:00 +10°C° 0 mm 1 m/s 693 mmHg 63%
    06:00 +10°C° 0 mm 1 m/s 694 mmHg 64%
    07:00 +10°C° 0 mm 1 m/s 694 mmHg 64%
    08:00 +10°C° 0 mm 1 m/s 695 mmHg 64%
    09:00 +13°C° 0 mm 1 m/s 695 mmHg 56%
    10:00 +15°C° 0 mm 1 m/s 696 mmHg 47%
    11:00 +18°C° 0 mm 1 m/s 697 mmHg 39%
    12:00 +19°C° 0 mm 1 m/s 697 mmHg 37%
    13:00 +19°C° 0 mm 2 m/s 697 mmHg 35%
    14:00 +20°C° 0 mm 2 m/s 697 mmHg 33%
    15:00 +19°C° 0 mm 3 m/s 697 mmHg 34%
    16:00 +18°C° 0 mm 3 m/s 697 mmHg 36%
    17:00 +17°C° 0 mm 4 m/s 696 mmHg 37%
    18:00 +15°C° 0 mm 4 m/s 697 mmHg 38%
    19:00 +13°C° 0 mm 4 m/s 697 mmHg 40%
    20:00 +12°C° 0 mm 4 m/s 697 mmHg 41%
    21:00 +11°C° 0 mm 4 m/s 697 mmHg 42%
    22:00 +11°C° 0 mm 4 m/s 697 mmHg 42%
    23:00 +11°C° 0 mm 4 m/s 698 mmHg 42%

    27 Maio, Segunda-feira

    Tempo Temperatura Precipitação Vento Pressão Humidade
    00:00 +11°C° 0 mm 3 m/s 698 mmHg 43%
    01:00 +10°C° 0 mm 3 m/s 697 mmHg 43%
    02:00 +10°C° 0 mm 3 m/s 697 mmHg 44%
    03:00 +9°C° 0 mm 3 m/s 697 mmHg 45%
    04:00 +9°C° 0 mm 2 m/s 697 mmHg 47%
    05:00 +8°C° 0 mm 2 m/s 697 mmHg 49%
    06:00 +9°C° 0 mm 2 m/s 697 mmHg 49%
    07:00 +9°C° 0 mm 2 m/s 698 mmHg 48%
    08:00 +10°C° 0 mm 2 m/s 698 mmHg 48%
    09:00 +13°C° 0 mm 2 m/s 699 mmHg 42%
    10:00 +16°C° 0 mm 2 m/s 699 mmHg 37%
    11:00 +18°C° 0 mm 2 m/s 700 mmHg 31%
    12:00 +19°C° 0 mm 3 m/s 699 mmHg 30%
    13:00 +19°C° 0 mm 3 m/s 698 mmHg 29%
    14:00 +20°C° 0 mm 3 m/s 698 mmHg 28%
    15:00 +19°C° 0 mm 2 m/s 698 mmHg 30%
    16:00 +18°C° 0 mm 2 m/s 697 mmHg 33%
    17:00 +16°C° 0 mm 1 m/s 697 mmHg 36%
    18:00 +15°C° 0 mm 1 m/s 697 mmHg 41%
    19:00 +13°C° 0 mm 1 m/s 697 mmHg 46%
    20:00 +11°C° 0 mm 1 m/s 697 mmHg 51%
    21:00 +11°C° 0 mm 1 m/s 697 mmHg 52%
    22:00 +11°C° 0 mm 1 m/s 697 mmHg 53%
    23:00 +10°C° 0 mm 2 m/s 698 mmHg 54%

    28 Maio, Terça-feira

    Tempo Temperatura Precipitação Vento Pressão Humidade
    00:00 +10°C° 0 mm 2 m/s 697 mmHg 52%
    01:00 +10°C° 0 mm 3 m/s 697 mmHg 50%
    02:00 +10°C° 0 mm 3 m/s 697 mmHg 48%
    03:00 +10°C° 0 mm 3 m/s 697 mmHg 48%
    04:00 +10°C° 0 mm 3 m/s 697 mmHg 49%
    05:00 +10°C° 0 mm 3 m/s 697 mmHg 50%
    06:00 +10°C° 0 mm 3 m/s 697 mmHg 53%
    07:00 +10°C° 0 mm 3 m/s 697 mmHg 56%
    08:00 +11°C° 0 mm 3 m/s 697 mmHg 59%
    09:00 +13°C° 0 mm 4 m/s 698 mmHg 52%
    10:00 +17°C° 0 mm 4 m/s 698 mmHg 45%
    11:00 +19°C° 0 mm 5 m/s 699 mmHg 37%
    12:00 +20°C° 0 mm 5 m/s 698 mmHg 35%
    13:00 +20°C° 0 mm 5 m/s 698 mmHg 32%
    14:00 +21°C° 0 mm 4 m/s 697 mmHg 29%
    15:00 +20°C° 0 mm 3 m/s 697 mmHg 33%
    16:00 +19°C° 0 mm 3 m/s 696 mmHg 38%
    17:00 +17°C° 0 mm 2 m/s 696 mmHg 42%
    18:00 +16°C° 0 mm 2 m/s 696 mmHg 48%
    19:00 +14°C° 0 mm 2 m/s 696 mmHg 54%
    20:00 +13°C° 0 mm 2 m/s 696 mmHg 59%
    21:00 +13°C° 0 mm 2 m/s 696 mmHg 64%
    22:00 +11°C° 0 mm 3 m/s 696 mmHg 69%
    23:00 +11°C° 0 mm 3 m/s 696 mmHg 74%

    29 Maio, Quarta-feira

    Tempo Temperatura Precipitação Vento Pressão Humidade
    00:00 +11°C° 0 mm 3 m/s 696 mmHg 76%
    01:00 +11°C° 0 mm 3 m/s 695 mmHg 78%
    02:00 +11°C° 0 mm 3 m/s 695 mmHg 80%
    03:00 +11°C° 0 mm 3 m/s 695 mmHg 81%
    04:00 +11°C° 0 mm 3 m/s 695 mmHg 81%
    05:00 +11°C° 0 mm 3 m/s 695 mmHg 81%
    06:00 +11°C° 0 mm 3 m/s 695 mmHg 81%
    07:00 +13°C° 0 mm 2 m/s 695 mmHg 81%
    08:00 +13°C° 0 mm 2 m/s 695 mmHg 81%
    09:00 +14°C° 0 mm 2 m/s 696 mmHg 76%
    10:00 +14°C° 0 mm 3 m/s 696 mmHg 71%
    11:00 +17°C° 0 mm 3 m/s 696 mmHg 66%
    12:00 +18°C° 0 mm 3 m/s 696 mmHg 62%
    13:00 +18°C° 0 mm 3 m/s 696 mmHg 58%
    14:00 +19°C° 0 mm 3 m/s 695 mmHg 54%
    15:00 +18°C° 0.1 mm 2 m/s 695 mmHg 58%
    16:00 +17°C° 0.1 mm 2 m/s 695 mmHg 63%
    17:00 +17°C° 0.1 mm 2 m/s 695 mmHg 67%
    18:00 +15°C° 0 mm 2 m/s 695 mmHg 73%
    19:00 +14°C° 0 mm 2 m/s 695 mmHg 79%
    20:00 +13°C° 0 mm 2 m/s 695 mmHg 84%
    21:00 +12°C° 0 mm 2 m/s 695 mmHg 86%
    22:00 +12°C° 0 mm 2 m/s 695 mmHg 88%
    23:00 +11°C° 0 mm 3 m/s 695 mmHg 90%
    Mostrar mais